QFA33 YSSY-YPPH

Flight info

Callsign QFA33
Flight time N/A
Altitude 36000
Route KADOM H44 AD Q33 ESP Q158 PH
Aircraft B789/H-SDE1E2E3FGHIJ2J3J4J5M1RWXY/LB1D1

Departure

Time 2026-04-22 09:51
Airport Sydney Kingsford Smith International Airport (YSSY)

Arrival

Time N/A
Airport Perth International Airport (YPPH)
Time Latitude Longitude Altitude Speed Heading
2026-04-22 09:16 -33.93098 151.17626 36 ft 0 kts 166°
2026-04-22 09:37 -33.93082 151.17621 36 ft 4 kts 163°
2026-04-22 09:38 -33.93058 151.17614 35 ft 4 kts 171°
2026-04-22 09:38 -33.93034 151.17616 36 ft 4 kts 218°
2026-04-22 09:38 -33.93022 151.17640 36 ft 4 kts 264°
2026-04-22 09:38 -33.93022 151.17672 36 ft 4 kts 282°
2026-04-22 09:39 -33.93029 151.17698 36 ft 0 kts 293°
2026-04-22 09:42 -33.93024 151.17683 36 ft 4 kts 290°
2026-04-22 09:42 -33.93010 151.17630 36 ft 9 kts 284°
2026-04-22 09:42 -33.92995 151.17536 35 ft 14 kts 281°
2026-04-22 09:43 -33.92973 151.17395 28 ft 19 kts 281°
2026-04-22 09:43 -33.92963 151.17331 26 ft 0 kts 281°
2026-04-22 09:46 -33.92962 151.17330 26 ft 2 kts 281°
2026-04-22 09:46 -33.92955 151.17281 30 ft 10 kts 281°
2026-04-22 09:46 -33.92964 151.17192 28 ft 10 kts 251°
2026-04-22 09:47 -33.92988 151.17169 26 ft 1 kts 176°
2026-04-22 09:47 -33.93006 151.17176 29 ft 6 kts 163°
2026-04-22 09:47 -33.93040 151.17186 25 ft 0 kts 168°
2026-04-22 09:49 -33.93041 151.17186 25 ft 0 kts 168°
2026-04-22 09:50 -33.93077 151.17195 30 ft 13 kts 168°
2026-04-22 09:50 -33.93320 151.17258 27 ft 63 kts 168°
2026-04-22 09:50 -33.93929 151.17416 26 ft 115 kts 167°
2026-04-22 09:50 -33.94855 151.17660 31 ft 157 kts 167°
2026-04-22 09:51 -33.95990 151.17952 422 ft 165 kts 167°
2026-04-22 09:51 -33.97098 151.18164 1201 ft 164 kts 179°
2026-04-22 09:51 -33.98278 151.18008 1771 ft 174 kts 186°
2026-04-22 09:51 -33.99562 151.17806 2155 ft 199 kts 184°
2026-04-22 09:52 -34.01024 151.17646 2436 ft 223 kts 182°
2026-04-22 09:52 -34.02588 151.17543 3088 ft 226 kts 176°
2026-04-22 09:52 -34.04177 151.18049 3522 ft 246 kts 160°
2026-04-22 09:52 -34.05831 151.18591 4457 ft 245 kts 166°
2026-04-22 09:53 -34.07505 151.19103 5080 ft 258 kts 166°
2026-04-22 09:53 -34.09271 151.19685 5004 ft 259 kts 165°
2026-04-22 09:53 -34.10981 151.20269 4992 ft 253 kts 165°
2026-04-22 09:53 -34.12671 151.20836 4990 ft 253 kts 165°
2026-04-22 09:54 -34.14363 151.21399 4994 ft 253 kts 165°
2026-04-22 09:54 -34.16058 151.21964 4987 ft 253 kts 165°
2026-04-22 09:54 -34.17751 151.22522 4985 ft 251 kts 167°
2026-04-22 09:54 -34.19488 151.22562 4993 ft 254 kts 191°
2026-04-22 09:55 -34.21107 151.21721 5009 ft 257 kts 215°
2026-04-22 09:55 -34.22363 151.20158 5371 ft 260 kts 227°
2026-04-22 09:55 -34.23557 151.18508 6218 ft 263 kts 227°
2026-04-22 09:55 -34.24748 151.16816 6988 ft 266 kts 231°
2026-04-22 09:56 -34.25453 151.14731 7716 ft 275 kts 257°
2026-04-22 09:56 -34.25346 151.12389 8372 ft 286 kts 284°
2026-04-22 09:56 -34.24836 151.10037 9031 ft 292 kts 281°
2026-04-22 09:56 -34.24339 151.07672 9732 ft 298 kts 288°
2026-04-22 09:57 -34.23206 151.05574 10382 ft 305 kts 316°
2026-04-22 09:57 -34.21374 151.04191 10617 ft 324 kts 346°
2026-04-22 09:57 -34.19136 151.03627 11116 ft 330 kts 351°
2026-04-22 09:57 -34.16860 151.03145 11797 ft 335 kts 352°
2026-04-22 09:58 -34.14559 151.02632 12509 ft 338 kts 351°
2026-04-22 09:58 -34.12227 151.02077 13167 ft 342 kts 350°
2026-04-22 09:58 -34.09914 151.01314 13760 ft 348 kts 345°
2026-04-22 09:58 -34.07564 151.00554 14383 ft 351 kts 347°
2026-04-22 09:59 -34.05182 150.99823 14961 ft 355 kts 346°
2026-04-22 09:59 -34.02783 150.99030 15510 ft 360 kts 345°
2026-04-22 09:59 -34.00396 150.98071 16018 ft 365 kts 332°
2026-04-22 09:59 -33.98370 150.96220 16411 ft 373 kts 310°
2026-04-22 10:00 -33.96992 150.93535 16480 ft 385 kts 287°
2026-04-22 10:00 -33.96469 150.90351 16626 ft 392 kts 269°
2026-04-22 10:00 -33.96485 150.87078 17222 ft 391 kts 263°
2026-04-22 10:00 -33.96597 150.83789 17725 ft 395 kts 264°
2026-04-22 10:01 -33.96536 150.80466 18243 ft 400 kts 270°
2026-04-22 10:01 -33.96279 150.77108 18717 ft 404 kts 271°
2026-04-22 10:01 -33.96061 150.73725 19165 ft 405 kts 269°
2026-04-22 10:01 -33.95938 150.70334 19648 ft 406 kts 268°
2026-04-22 10:02 -33.95858 150.68084 19956 ft 407 kts 268°
2026-04-22 10:02 -33.95695 150.64669 20415 ft 409 kts 269°
2026-04-22 10:02 -33.95509 150.61251 20878 ft 410 kts 269°
2026-04-22 10:02 -33.95339 150.57819 21334 ft 411 kts 269°
2026-04-22 10:03 -33.95181 150.54375 21752 ft 413 kts 268°
2026-04-22 10:03 -33.95015 150.50918 22170 ft 415 kts 269°
2026-04-22 10:03 -33.94841 150.47444 22580 ft 416 kts 269°
2026-04-22 10:03 -33.94666 150.43958 22950 ft 418 kts 269°
2026-04-22 10:04 -33.94492 150.40454 23357 ft 419 kts 269°
2026-04-22 10:04 -33.94315 150.36899 23748 ft 421 kts 269°
2026-04-22 10:04 -33.94137 150.33380 24082 ft 422 kts 269°